Flag for Switzerland

Past Weather in Altdorf, Uri, Switzerland — Yesterday and Last 2 Weeks

Now
71 °F

Mild.


Feels Like: 76 °F
Forecast: 80 / 58 °F
Wind: 2 mph from Northwest

Location: Altdorf

Current Time: Jul 9, 2020 at 11:25:22 am

Latest Report: Jul 9, 2020 at 10:00 am


Visibility: N/A

Pressure: 30.05 "Hg

Humidity: 60%

Dew Point: 56 °F

Location of AltdorfLocation

Past Weather in Altdorf — Graph

°F

Altdorf Temperature Yesterday

Maximum temperature yesterday: 79 °F (at 5:00 pm)
Minimum temperature yesterday: 52 °F (at 5:00 am)
Average temperature yesterday: 65 °F

High & Low Weather Summary for the Past Weeks

 TemperatureHumidityPressure
High82 °F (Jun 26, 3:00 pm)98% (Jul 2, 4:00 am)30.19 "Hg (Jul 2, 4:00 am)
Low52 °F (Jul 8, 5:00 am)39% (Jul 8, 5:00 pm)29.78 "Hg (Jul 1, 4:00 pm)
Average66 °F76%30.02 "Hg
* Reported Jun 24 9:00 am — Jul 9 9:00 am, Altdorf. Weather by CustomWeather, © 2020

Note: Actual official high and low records may vary slightly from our data, if they occured in-between our weather recording intervals... More about our weather records

Altdorf Weather History for the Previous 24 Hours

Scroll right to see more
 ConditionsComfort  
Time TempWeatherWind HumidityBarometerVisibility
9:00 am
Thu, Jul 9
67 °FMild.2 mph66%30.07 "HgN/A
8:00 am58 °FPassing clouds.1 mph83%30.11 "Hg22 mi
7:00 am58 °FCool.2 mph84%30.11 "HgN/A
6:00 am57 °FCool.2 mph85%30.10 "HgN/A
5:00 am58 °FPassing clouds.2 mph83%30.09 "Hg22 mi
4:00 am58 °FCool.3 mph82%30.09 "HgN/A
3:00 am60 °FCool.2 mph76%30.09 "HgN/A
1:00 am61 °FCool.2 mph78%30.11 "HgN/A
12:00 am64 °FMild.1 mph71%30.10 "HgN/A
11:00 pm
Wed, Jul 8
66 °FPassing clouds.2 mph63%30.08 "Hg22 mi
10:00 pm66 °FMild.No wind71%30.07 "HgN/A
9:00 pm69 °FMild.1 mph65%30.03 "HgN/A
8:00 pm73 °FPartly sunny.1 mph48%30.01 "Hg22 mi
7:00 pm77 °FMild.3 mph40%30.00 "HgN/A
6:00 pm76 °FMild.6 mph39%29.99 "HgN/A
5:00 pm79 °FPartly sunny.8 mph39%29.99 "Hg22 mi
4:00 pm78 °FWarm.6 mph43%29.99 "HgN/A
3:00 pm76 °FMild.7 mph44%30.00 "HgN/A
2:00 pm76 °FScattered clouds.8 mph44%30.01 "Hg22 mi
1:00 pm75 °FMild.7 mph43%30.02 "HgN/A
12:00 pm71 °FMild.5 mph51%30.04 "HgN/A
11:00 am67 °FPassing clouds.2 mph54%30.05 "Hg22 mi
Weather by CustomWeather, © 2020

See weather overview